Location: Lafig�re
(44.4503°N, 4.0357°E)
Time: 16:49:16
(UTC+00:00)

deb Explorer IX - Pass Details

Date: 26 January 2021
Orbit: 537 x 1102 km, 38.8° (Epoch: 04 March)

Event Time Altitude Azimuth Distance (km) Brightness Sun altitude
Rises 15:31:16 0° 216° (SW) 3,864 ? 10.3°
Reaches altitude 10° 15:34:37 10° 204° (SSW) 2,862 ? 9.8°
Maximum altitude 15:40:01 24° 153° (SSE) 1,906 ? 9.0°
Drops below altitude 10° 15:44:58 10° 101° (ESE) 2,608 ? 8.3°
Sets 15:47:52 0° 88° (E) 3,453 ? 7.9°
